Regional Weather Roundup
Issued by NWS Austin/San Antonio, TX

Home | Current Version | Previous Version | Text Only | Print | Product List | Glossary On
Versions: 1 2 3 4 5 6 7 8 9 10 11 12 13 14 15 16 17 18 19 20 21 22 23 24 25 26 27 28 29 30 31 32 33 34 35 36 37 38 39 40 41 42 43 44 45 46 47 48 49 50
000
ASUS44 KEWX 171901
RWREWX
SOUTH TEXAS REGIONAL WEATHER ROUNDUP
NATIONAL WEATHER SERVICE AUSTIN/SAN ANTONIO TX
100 PM CST SUN FEB 17 2019

NOTE: "FAIR" INDICATED FEW OR NO CLOUDS BELOW 12,000 FEET WITH NO
SIGNIFICANT WEATHER AND/OR OBSTRUCTIONS TO VISIBILITY.

* - THESE STATIONS ARE NOT NWS OR FAA STATIONS...AND ARE NOT SUBJECT
    TO NWS AND FAA QUALITY CONTROL.

TXZ171-172-183>190-172000-
TEXAS HILL COUNTRY AND EDWARDS PLATEAU

CITY           SKY/WX    TMP DP  RH WIND       PRES   REMARKS
JUNCTION       SUNNY     63  26  24 N14       29.93F
*LLANO         SUNNY     61  37  41 N12       29.98F
BURNET         SUNNY     58  38  47 N13       29.95F
*HORSESHOE BAY SUNNY     58  37  45 N6        29.94F
*KERRVILLE     SUNNY     65  23  19 N12G20    29.91F
*FREDERICKSBRG SUNNY     62  30  30 NE14G20   29.92F
*ROCKSPRINGS   SUNNY     63  19  19 N12G20    29.95F
*BOERNE STAGE  SUNNY     64  27  24 NE13G20   29.90F
*CASTROVILLE   SUNNY     73  22  14 N15G23    29.88S
HONDO          SUNNY     76  29  17 NE15G23   29.87F
*UVALDE        SUNNY     72  29  20 N8        29.88F
DEL RIO        SUNNY     71  26  18 VRB6      29.88F
LAUGHLIN AFB   SUNNY     72  23  16 NE6G18    29.88F
CARRIZO SPRGS  SUNNY     73  30  20 N7        29.86F
*FAITH RANCH   SUNNY     77  27  15 N12G20    29.86F
$$

TXZ173-191>194-202-209-217>225-228-172000-
CENTRAL AND SOUTH CENTRAL TEXAS

CITY           SKY/WX    TMP DP  RH WIND       PRES   REMARKS
GEORGETOWN     SUNNY     55  40  56 N14G22    29.96S
AUSTIN/BERGSTM PTSUNNY   60  43  53 N21       29.93R
AUSTIN/MABRY   PTSUNNY   58  39  49 N9G17     29.94S
*AUSTIN/EXEC   MOSUNNY   55  41  58 N23       29.94S HAZE
*LAGO VISTA    SUNNY     57  31  37 N12G22    29.93S
SAN MARCOS     SUNNY     65  45  48 N17G23    29.91S
NEW BRAUNFELS  SUNNY     68  39  34 NE18G26   29.88S
RANDOLPH AFB   SUNNY     69  36  30 N14G22    29.87S
PT SAN ANTONIO SUNNY     71  33  24 N16       29.86S
SAN ANTONIO    PTSUNNY   71  35  26 N15       29.87F
STINSON FIELD  SUNNY     74  29  19 NE16G23   29.84F
*LA GRANGE     CLOUDY    59  46  60 N12G18    29.88S
*GIDDINGS      SUNNY     57  45  65 N16G25    29.92S
*GONZALES      SUNNY     64  48  55 NE15G23   29.87S
$$

TXZ163>164-176>182-195>201-210>213-226-227-235-172000-
SOUTHEAST TEXAS

CITY           SKY/WX    TMP DP  RH WIND       PRES   REMARKS
COLLEGE STN    CLOUDY    56  44  64 N18       29.91F
*BRYAN         CLOUDY    52  43  70 N14G22    29.94S
*CALDWELL      PTSUNNY   53  43  66 N20G29    29.93S
*CROCKETT        N/A     50  45  81 N9        29.95S WCI  46
*BRENHAM       CLOUDY    57  46  68 N12G24    29.90F
HUNTSVILLE     CLOUDY    52  45  77 N12G20    29.90S
CONROE         CLOUDY    56  51  84 N13       29.87F
HOUSTON BUSH   CLOUDY    56  53  90 N16       29.85S
HOUSTON HOBBY  CLOUDY    57  53  86 N21       29.83R
*HOUSTON SW AP CLOUDY    57  54  89 N14G20    29.84S
PEARLAND       CLOUDY    59  57  93 N16G23    29.84R
HOUSTON HOOKS  CLOUDY    56  50  80 N14G20    29.86F
ELLINGTON FLD  CLOUDY    63  59  88 NW15      29.84S
SUGAR LAND     CLOUDY    59  52  77 N18       29.84R
*HOUSTON EXEC  CLOUDY    57  52  82 N17       29.87F
*CLEVELAND MUN CLOUDY    55  52  91 N10G16    29.88S
*WHARTON       CLOUDY    57  52  82 N20       29.84F
*COLUMBUS      CLOUDY    58  46  63 N17       29.87F
*EAGLE LAKE    CLOUDY    58  49  71 N17G23    29.86
$$

TXZ214>216-236>238-172000-
THE UPPER TEXAS COAST

CITY           SKY/WX    TMP DP  RH WIND       PRES   REMARKS
*ORANGE        CLOUDY    66  65  96 N7        29.81S
PORT ARTHUR    CLOUDY    65  59  81 N13       29.79S
GALVESTON      LGT RAIN  61  58  90 N21       29.79S FOG
ANGLETON       LGT RAIN  62  59  90 N14G22    29.81R
*BAY CITY      CLOUDY    60  57  90 N15G22    29.82S FOG
PALACIOS       CLOUDY    62  58  86 N23       29.81S
$$

TXZ229>234-239>247-172000-
TEXAS COASTAL BEND AND RIO GRANDE PLAINS

CITY           SKY/WX    TMP DP  RH WIND       PRES   REMARKS
VICTORIA       CLOUDY    67  52  58 NE20      29.82F
*BEEVILLE      MOSUNNY   76  40  27 N14G21    29.82F
ROCKPORT       CLOUDY    66  57  72 N17       29.80F
*PORT ARANSAS  CLOUDY    65  60  84 N16       29.81F
*PORT LAVACA   CLOUDY    65  57  76 N18       29.83S
*INGLESIDE     CLOUDY    68  60  74 NE15      29.79F
CORPUS CHRISTI MOSUNNY   74  59  59 NE15      29.79F
CORPUS NAS     CLOUDY    69  62  78 N10       29.79F
*ROBSTOWN      NOT AVBL
ALICE          MOSUNNY   77  50  38 N10G21    29.79F
KINGSVILLE NAS SUNNY     77  59  53 NE14G23   29.79F
COTULLA        SUNNY     73  33  23 NE14G24   29.85F
LAREDO         SUNNY     78  41  26 NE15G25   29.82F
$$

TXZ248>255-172000-
DEEP SOUTH TEXAS

CITY           SKY/WX    TMP DP  RH WIND       PRES   REMARKS
BROWNSVILLE    CLOUDY    69  68  96 N13G22    29.75S
PORT ISABEL    CLOUDY    67  65  93 N17G25    29.75S FOG
HARLINGEN      CLOUDY    70  66  87 NE20      29.76F
*HEBBRONVILLE  SUNNY     72  52  48 N10G17    29.82F
MCALLEN        CLOUDY    76  67  73 N16       29.78F HAZE
*WESLACO       CLOUDY    69  65  86 N9        29.77
FALFURRIAS     MOSUNNY   76  59  56 NE8       29.79F
EDINBURG       CLOUDY    73  65  76 N13       29.79S
*ZAPATA        FAIR      76  55  49 N13G20    29.83F
$$

TXZ213>215-236>238-242>244-246-247-251-254-255-172000-
CMAN STATIONS

STATION/POSITION TIME  TEMP    WIND        PRES    WAVE
                       AIR SEA DIR/SP/G            HT/PER
                 (UTC) (F)     (DEG/KT/KT) (MB)    (FT/S)
SABINE PASS      1830   66 64   10/ 10/ 11 1010.0
SEA RIM ST PARK  1800   69     150/  4/  5 1008.4
NORTH JETTY/GLS  1830   62 62  350/ 19/ 22 1008.0
EAGLE POINT      1830   60 63  360/ 12/ 18 1009.3
MORGANS POINT    1830   59 61   10/  9/ 18 1009.7
PORT O`CONNOR    1830   61 63  360/ 15/ 19 1009.1
PORT ARANSAS     1800   62 61   20/ 12/ 13 1008.8
MALAQUITE BEACH  1830   62 62   10/ 11/ 13 1008.3
BAFFIN BAY       1830   64 67   10/ 12/ 18 1008.9
PORT ISABEL      1830   66 65  340/ 14/ 19 1007.4
$$




USA.gov is the U.S. government's official web portal to all federal, state and local government web resources and services.